Regional Weather Roundup
Issued by NWS Kansas City/Pleasant Hill, MO

Home | Current Version | Previous Version | Graphics & Text | Print | Product List | Glossary Off
Versions: 1 2 3 4 5 6 7 8 9 10 11 12 13 14 15 16 17 18 19 20 21 22 23 24 25 26 27

000
ASUS43 KEAX 200910
RWREAX

WEATHER ROUNDUP FOR EASTERN KANSAS AND NORTHWEST MISSOURI
NATIONAL WEATHER SERVICE KANSAS CITY/PLEASANT HILL MO
300 AM CST FRI JAN 20 2017

KSZ040-057-103>105-MOZ028-029-037-043-201000-
...KANSAS CITY METROPOLITAN AREA...

CITY           SKY/WX    TMP DP  RH WIND       PRES   REMARKS
K.C. INTL      FOG       45  43  93 E6        29.59F VSB 1/2
K.C. DOWNTOWN  CLOUDY    47  47 100 CALM      29.60R FOG
LEES SUMMIT    CLOUDY    46  46 100 SE5       29.59F FOG
OLATHE - IXD   CLOUDY    45  45 100 E3        29.58F FOG
OLATHE - OJC   CLOUDY    45  45 100 E6        29.57F FOG
LAWRENCE       FOG       44  44 100 NE3       29.58F VSB 1/2

$$

MOZ001>008-011>017-020>025-030>033-038>040-044>046-053-054-201000-
...NORTHERN AND CENTRAL MISSOURI...

CITY           SKY/WX    TMP DP  RH WIND       PRES   REMARKS
ST. JOSEPH     FOG       42  42 100 CALM      29.60F VSB 1
MOSBY          CLOUDY    45  45 100 CALM      29.60F FOG
WARRENSBURG    FOG       45  45 100 CALM      29.60F VSB 3/4
WHITEMAN AFB   FOG       46  46 100 CALM      29.59F VSB 1
CLINTON        FOG       46  46 100 CALM      29.60F VSB 1/4
SEDALIA        FOG       47  46  97 S5        29.62F VSB 1/2
WARSAW         NOT AVBL
CHILLICOTHE      N/A     43  43 100 CALM      29.62F
KIRKSVILLE     FOG       40  40 100 NE3       29.61F VSB 1/4

$$

MOZ041-047>049-056>058-063>065-088>090-097-201000-
...EASTERN AND SOUTHERN MISSOURI...

CITY           SKY/WX    TMP DP  RH WIND       PRES   REMARKS
ST. LOUIS INTL FOG       48  46  93 CALM      29.62F VSB 1/8
SPIRIT OF STL  CLOUDY    45  45 100 CALM      29.61F FOG
COLUMBIA       FOG       44 N/A N/A CALM      29.61R VSB 1/4
JEFFERSON CITY FOG       46  46 100 CALM      29.63R VSB 1/4
ROLLA          CLOUDY    48  48 100 S8        29.61R
OSAGE BEACH    MOCLDY    48  48 100 CALM      29.61F FOG
SPRINGFIELD    CLOUDY    48  47  96 SE6       29.60S
BRANSON        FOG       39  39 100 CALM      29.63F VSB<1/4
JOPLIN         CLOUDY    49  48  97 SE6       29.60S FOG
WEST PLAINS    CLOUDY    49  48  97 CALM      29.65F

$$

IAZ060-094-KSZ022-034>040-054-083-096-NEZ052-066-093-201000-
...KANSAS...SOUTHEAST NEBRASKA AND IOWA...

CITY           SKY/WX    TMP DP  RH WIND       PRES   REMARKS
TOPEKA         FOG       45  43  93 NE3       29.57F VSB 1/2
MANHATTAN      FOG       44  43  96 NE5       29.55F VSB 1/4
EMPORIA        CLOUDY    43  43 100 E5        29.56S FOG
CHANUTE        CLOUDY    49  47  93 S8        29.57R
WICHITA        CLOUDY    44  44 100 SE5       29.53S FOG
OMAHA          FOG       37  34  89 NW5       29.61R VSB 1/2 WCI  33
LINCOLN        FOG       39  38  96 CALM      29.58F VSB 1
FALLS CITY     FOG       40  40 100 CALM      29.58F VSB 1/2
LAMONI         FOG       37  37 100 CALM      29.60S VSB 1/2
DES MOINES     DRZL/FOG  37  36  96 E3        29.62R VSB 1

$$





USA.gov is the U.S. government's official web portal to all federal, state and local government web resources and services.